| time (UTC) | temp C | wind direction | speed KPH | gust KPH | rain 1hr cm | rain 24hr cm | rain mn cm | humidity % | barometer mb |
| 20260505125036 | 20 | 32 | 1.6 | 1.6 | 0.00 | 0.00 | 0.00 | 52 | 1011.1 |
| 20260505124532 | 19 | 1 | 3.2 | 3.2 | 0.00 | 0.00 | 0.00 | 52 | 1011.3 |
| 20260505124028 | 18 | 42 | 1.6 | 1.6 | 0.00 | 0.00 | 0.00 | 53 | 1011.2 |
| 20260505123525 | 18 | 32 | 3.2 | 3.2 | 0.00 | 0.00 | 0.00 | 55 | 1010.9 |
| 20260505123021 | 18 | 4 | 3.2 | 4.8 | 0.00 | 0.00 | 0.00 | 55 | 1011.0 |
| 20260505122519 | 17 | 12 | 0.0 | 1.6 | 0.00 | 0.00 | 0.00 | 57 | 1011.0 |
| 20260505122015 | 17 | 15 | 1.6 | 1.6 | 0.00 | 0.00 | 0.00 | 57 | 1011.0 |
| 20260505121512 | 17 | 18 | 4.8 | 4.8 | 0.00 | 0.00 | 0.00 | 58 | 1010.9 |
| 20260505121009 | 16 | 37 | 0.0 | 1.6 | 0.00 | 0.00 | 0.00 | 59 | 1011.0 |
| 20260505120505 | 16 | 9 | 1.6 | 1.6 | 0.00 | 0.00 | 0.00 | 62 | 1011.0 |
| 20260505120005 | 16 | 24 | 1.6 | 1.6 | 0.00 | 0.00 | 0.00 | 62 | 1011.0 |
| 20260505115500 | 15 | 24 | 0.0 | 1.6 | 0.00 | 0.00 | 0.00 | 66 | 1010.8 |
| 20260505114958 | 15 | 14 | 1.6 | 1.6 | 0.00 | 0.00 | 0.00 | 67 | 1011.0 |
| 20260505114455 | 15 | 33 | 0.0 | 1.6 | 0.00 | 0.00 | 0.00 | 67 | 1010.9 |
| 20260505113952 | 15 | 33 | 1.6 | 1.6 | 0.00 | 0.00 | 0.00 | 70 | 1010.8 |
| 20260505113448 | 14 | 20 | 3.2 | 3.2 | 0.00 | 0.00 | 0.00 | 72 | 1010.7 |
| 20260505112943 | 14 | 27 | 0.0 | 0.0 | 0.00 | 0.00 | 0.00 | 74 | 1010.7 |
| 20260505112441 | 12 | 21 | 0.0 | 1.6 | 0.00 | 0.00 | 0.00 | 73 | 1010.8 |
| 20260505111938 | 12 | 50 | 1.6 | 3.2 | 0.00 | 0.00 | 0.00 | 82 | 1010.7 |
| 20260505111437 | 12 | 32 | 0.0 | 0.0 | 0.00 | 0.00 | 0.00 | 83 | 1010.8 |
| 20260505110934 | 12 | 30 | 1.6 | 1.6 | 0.00 | 0.00 | 0.00 | 83 | 1010.7 |
| 20260505110431 | 11 | 24 | 0.0 | 0.0 | 0.00 | 0.00 | 0.00 | 85 | 1010.6 |
| 20260505101903 | 11 | 11 | 0.0 | 1.6 | 0.00 | 0.00 | 0.00 | 88 | 1010.2 |
| 20260505101403 | 11 | 31 | 0.0 | 0.0 | 0.00 | 0.00 | 0.00 | 88 | 1010.1 |
| 20260505100859 | 11 | 15 | 0.0 | 1.6 | 0.00 | 0.00 | 0.00 | 87 | 1010.2 |
| 20260505100355 | 11 | 29 | 0.0 | 0.0 | 0.00 | 0.00 | 0.00 | 87 | 1010.0 |
| 20260505095851 | 11 | 42 | 0.0 | 1.6 | 0.00 | 0.00 | 0.00 | 86 | 1009.9 |
| 20260505095349 | 11 | 32 | 1.6 | 1.6 | 0.00 | 0.00 | 0.00 | 86 | 1010.0 |
| 20260505094845 | 11 | 14 | 1.6 | 1.6 | 0.00 | 0.00 | 0.00 | 84 | 1010.0 |
| 20260505094342 | 11 | 31 | 0.0 | 0.0 | 0.00 | 0.00 | 0.00 | 83 | 1009.8 |
| 20260505093837 | 12 | 17 | 0.0 | 1.6 | 0.00 | 0.00 | 0.00 | 83 | 1009.9 |
| 20260505093335 | 12 | 36 | 0.0 | 1.6 | 0.00 | 0.00 | 0.00 | 81 | 1009.9 |
| 20260505092832 | 12 | 25 | 0.0 | 0.0 | 0.00 | 0.00 | 0.00 | 79 | 1009.9 |
| 20260505092330 | 12 | 36 | 1.6 | 3.2 | 0.00 | 0.00 | 0.00 | 78 | 1009.7 |
| 20260505091827 | 13 | 33 | 1.6 | 1.6 | 0.00 | 0.00 | 0.00 | 76 | 1009.8 |
| 20260505091325 | 13 | 31 | 0.0 | 1.6 | 0.00 | 0.00 | 0.00 | 75 | 1009.8 |
| 20260505090823 | 13 | 32 | 0.0 | 0.0 | 0.00 | 0.00 | 0.00 | 74 | 1009.8 |
| 20260505090321 | 12 | 28 | 1.6 | 1.6 | 0.00 | 0.00 | 0.00 | 76 | 1009.8 |
| 20260505085818 | 12 | 48 | 1.6 | 1.6 | 0.00 | 0.00 | 0.00 | 78 | 1009.8 |
| 20260505085316 | 12 | 31 | 1.6 | 1.6 | 0.00 | 0.00 | 0.00 | 78 | 1009.9 |
| 20260505084813 | 12 | 19 | 0.0 | 1.6 | 0.00 | 0.00 | 0.00 | 78 | 1009.8 |
| 20260505084312 | 12 | 34 | 3.2 | 3.2 | 0.00 | 0.00 | 0.00 | 81 | 1009.9 |
| 20260505083808 | 12 | 38 | 1.6 | 1.6 | 0.00 | 0.00 | 0.00 | 81 | 1009.8 |
| 20260505083306 | 12 | 11 | 1.6 | 1.6 | 0.00 | 0.00 | 0.00 | 81 | 1009.9 |
| 20260505082802 | 12 | 24 | 1.6 | 1.6 | 0.00 | 0.00 | 0.00 | 78 | 1009.8 |
| 20260505082259 | 12 | 31 | 3.2 | 3.2 | 0.00 | 0.00 | 0.00 | 79 | 1009.8 |
| 20260505081755 | 12 | 20 | 1.6 | 1.6 | 0.00 | 0.00 | 0.00 | 78 | 1009.8 |
| 20260505081252 | 12 | 9 | 3.2 | 3.2 | 0.00 | 0.00 | 0.00 | 80 | 1009.7 |
| 20260505080749 | 12 | 14 | 0.0 | 1.6 | 0.00 | 0.00 | 0.00 | 83 | 1009.7 |
| 20260505080244 | 11 | 23 | 1.6 | 1.6 | 0.00 | 0.00 | 0.00 | 83 | 1009.8 |
| 20260505075740 | 11 | 32 | 0.0 | 0.0 | 0.00 | 0.00 | 0.00 | 84 | 1009.7 |
| 20260505075238 | 11 | 32 | 1.6 | 1.6 | 0.00 | 0.00 | 0.00 | 87 | 1009.8 |
| 20260505074735 | 11 | 33 | 0.0 | 0.0 | 0.00 | 0.00 | 0.00 | 90 | 1009.7 |
| 20260505074232 | 10 | 9 | 1.6 | 1.6 | 0.00 | 0.00 | 0.00 | 92 | 1009.8 |
| 20260505073729 | 10 | 33 | 1.6 | 1.6 | 0.00 | 0.00 | 0.00 | 93 | 1009.7 |
| 20260505073227 | 10 | 28 | 0.0 | 0.0 | 0.00 | 0.00 | 0.00 | 93 | 1009.7 |
| 20260505072723 | 10 | 21 | 0.0 | 1.6 | 0.00 | 0.00 | 0.00 | 93 | 1009.7 |
| 20260505072219 | 10 | 27 | 1.6 | 1.6 | 0.00 | 0.00 | 0.00 | 93 | 1009.6 |
| 20260505071715 | 10 | 22 | 0.0 | 1.6 | 0.00 | 0.00 | 0.00 | 92 | 1009.5 |
| 20260505071212 | 10 | 32 | 0.0 | 0.0 | 0.00 | 0.00 | 0.00 | 92 | 1009.6 |
| 20260505070710 | 10 | 27 | 0.0 | 0.0 | 0.00 | 0.00 | 0.00 | 92 | 1009.7 |
| 20260505070206 | 10 | 28 | 0.0 | 0.0 | 0.00 | 0.00 | 0.00 | 92 | 1009.5 |
| 20260505065702 | 10 | 25 | 0.0 | 0.0 | 0.00 | 0.00 | 0.00 | 92 | 1009.5 |
| 20260505065159 | 10 | 24 | 0.0 | 0.0 | 0.00 | 0.00 | 0.00 | 92 | 1009.6 |
| 20260505064656 | 10 | 28 | 0.0 | 0.0 | 0.00 | 0.00 | 0.00 | 92 | 1009.5 |
| 20260505064154 | 10 | 30 | 0.0 | 0.0 | 0.00 | 0.00 | 0.00 | 92 | 1009.5 |
| 20260505063651 | 10 | 33 | 0.0 | 0.0 | 0.00 | 0.00 | 0.00 | 92 | 1009.6 |
| 20260505063147 | 10 | 20 | 0.0 | 0.0 | 0.00 | 0.00 | 0.00 | 92 | 1009.6 |
| 20260505062643 | 10 | 22 | 0.0 | 0.0 | 0.00 | 0.00 | 0.00 | 92 | 1009.7 |
| 20260505062141 | 10 | 32 | 0.0 | 1.6 | 0.00 | 0.00 | 0.00 | 91 | 1009.8 |
| 20260505061638 | 10 | 28 | 0.0 | 0.0 | 0.00 | 0.00 | 0.00 | 91 | 1009.5 |
| 20260505061136 | 10 | 28 | 0.0 | 0.0 | 0.00 | 0.00 | 0.00 | 91 | 1009.4 |
| 20260505060633 | 10 | 28 | 0.0 | 0.0 | 0.00 | 0.00 | 0.00 | 91 | 1009.6 |
| 20260505060130 | 10 | 28 | 0.0 | 0.0 | 0.00 | 0.00 | 0.00 | 91 | 1009.5 |
| 20260505055625 | 10 | 27 | 0.0 | 0.0 | 0.00 | 0.00 | 0.00 | 90 | 1009.7 |
| 20260505055122 | 10 | 28 | 0.0 | 0.0 | 0.00 | 0.00 | 0.00 | 90 | 1009.7 |
| 20260505054619 | 10 | 28 | 0.0 | 0.0 | 0.00 | 0.00 | 0.00 | 90 | 1009.8 |
| 20260505054118 | 10 | 28 | 0.0 | 0.0 | 0.00 | 0.00 | 0.00 | 90 | 1009.7 |
| 20260505053614 | 10 | 27 | 0.0 | 0.0 | 0.00 | 0.00 | 0.00 | 89 | 1009.8 |
| 20260505053111 | 10 | 24 | 0.0 | 0.0 | 0.00 | 0.00 | 0.00 | 89 | 1009.5 |
| 20260505052608 | 10 | 30 | 0.0 | 1.6 | 0.00 | 0.00 | 0.00 | 89 | 1009.7 |
| 20260505052106 | 10 | 25 | 0.0 | 0.0 | 0.00 | 0.00 | 0.00 | 88 | 1009.8 |
| 20260505051602 | 11 | 19 | 0.0 | 0.0 | 0.00 | 0.00 | 0.00 | 88 | 1009.8 |
| 20260505051100 | 11 | 23 | 1.6 | 1.6 | 0.00 | 0.00 | 0.00 | 89 | 1009.8 |
| 20260505050558 | 11 | 20 | 0.0 | 0.0 | 0.00 | 0.00 | 0.00 | 88 | 1009.7 |
| 20260505041526 | 11 | 30 | 0.0 | 0.0 | 0.00 | 0.00 | 0.00 | 85 | 1009.5 |
| 20260505041023 | 11 | 26 | 0.0 | 0.0 | 0.00 | 0.00 | 0.00 | 85 | 1009.6 |
| 20260505040520 | 11 | 27 | 0.0 | 0.0 | 0.00 | 0.00 | 0.00 | 84 | 1009.8 |
| 20260505040018 | 11 | 28 | 0.0 | 0.0 | 0.00 | 0.00 | 0.00 | 84 | 1009.6 |
| 20260505035513 | 11 | 31 | 0.0 | 0.0 | 0.00 | 0.00 | 0.00 | 84 | 1009.5 |
| 20260505035010 | 11 | 28 | 0.0 | 0.0 | 0.00 | 0.00 | 0.00 | 83 | 1009.5 |
| 20260505034507 | 11 | 29 | 0.0 | 0.0 | 0.00 | 0.00 | 0.00 | 83 | 1009.6 |
| 20260505034004 | 11 | 33 | 0.0 | 0.0 | 0.00 | 0.00 | 0.00 | 83 | 1009.6 |
| 20260505033500 | 11 | 31 | 0.0 | 0.0 | 0.00 | 0.00 | 0.00 | 82 | 1009.6 |
| 20260505032959 | 11 | 30 | 1.6 | 1.6 | 0.00 | 0.00 | 0.00 | 81 | 1009.6 |
| 20260505032456 | 12 | 28 | 0.0 | 0.0 | 0.00 | 0.00 | 0.00 | 81 | 1009.7 |
| 20260505031952 | 12 | 28 | 0.0 | 0.0 | 0.00 | 0.00 | 0.00 | 81 | 1009.4 |
| 20260505031449 | 12 | 28 | 0.0 | 0.0 | 0.00 | 0.00 | 0.00 | 79 | 1009.6 |
| 20260505030946 | 12 | 28 | 0.0 | 0.0 | 0.00 | 0.00 | 0.00 | 79 | 1009.5 |
| 20260505030442 | 12 | 31 | 0.0 | 0.0 | 0.00 | 0.00 | 0.00 | 78 | 1009.4 |
| 20260505025937 | 12 | 35 | 0.0 | 0.0 | 0.00 | 0.00 | 0.00 | 78 | 1009.6 |
| 20260505025435 | 12 | 32 | 0.0 | 0.0 | 0.00 | 0.00 | 0.00 | 77 | 1009.6 |
| 20260505024934 | 12 | 32 | 0.0 | 0.0 | 0.00 | 0.00 | 0.00 | 77 | 1009.4 |
| 20260505024431 | 12 | 30 | 0.0 | 0.0 | 0.00 | 0.00 | 0.00 | 75 | 1009.6 |
| 20260505023928 | 13 | 30 | 0.0 | 0.0 | 0.00 | 0.00 | 0.00 | 75 | 1009.6 |
| 20260505023425 | 13 | 30 | 0.0 | 0.0 | 0.00 | 0.00 | 0.00 | 74 | 1009.7 |
| 20260505022922 | 13 | 27 | 0.0 | 0.0 | 0.00 | 0.00 | 0.00 | 73 | 1009.5 |
| 20260505022420 | 13 | 28 | 0.0 | 0.0 | 0.00 | 0.00 | 0.00 | 73 | 1009.5 |
| 20260505021916 | 13 | 28 | 0.0 | 0.0 | 0.00 | 0.00 | 0.00 | 72 | 1009.4 |
| 20260505021413 | 13 | 32 | 0.0 | 0.0 | 0.00 | 0.00 | 0.00 | 72 | 1009.4 |
| 20260505020909 | 13 | 31 | 0.0 | 0.0 | 0.00 | 0.00 | 0.00 | 72 | 1009.3 |
| 20260505020404 | 13 | 29 | 0.0 | 0.0 | 0.00 | 0.00 | 0.00 | 69 | 1009.6 |
| 20260505015901 | 14 | 32 | 0.0 | 0.0 | 0.00 | 0.00 | 0.00 | 69 | 1009.5 |
| 20260505015358 | 14 | 32 | 0.0 | 0.0 | 0.00 | 0.00 | 0.00 | 68 | 1009.3 |
| 20260505014856 | 14 | 35 | 0.0 | 0.0 | 0.00 | 0.00 | 0.00 | 68 | 1009.2 |
| 20260505014352 | 15 | 32 | 0.0 | 0.0 | 0.00 | 0.00 | 0.00 | 68 | 1009.2 |
| 20260505013849 | 15 | 33 | 0.0 | 1.6 | 0.00 | 0.00 | 0.00 | 67 | 1009.1 |
| 20260505013346 | 15 | 43 | 0.0 | 1.6 | 0.00 | 0.00 | 0.00 | 67 | 1009.1 |
| 20260505012845 | 15 | 36 | 0.0 | 0.0 | 0.00 | 0.00 | 0.00 | 65 | 1008.8 |
| 20260505012343 | 15 | 42 | 0.0 | 0.0 | 0.00 | 0.00 | 0.00 | 63 | 1009.1 |
| 20260505011838 | 15 | 37 | 0.0 | 0.0 | 0.00 | 0.00 | 0.00 | 61 | 1009.0 |
| 20260505011335 | 16 | 39 | 0.0 | 1.6 | 0.00 | 0.00 | 0.00 | 60 | 1009.2 |
| 20260505010831 | 16 | 36 | 0.0 | 0.0 | 0.00 | 0.00 | 0.00 | 59 | 1009.0 |
| 20260505010327 | 16 | 37 | 0.0 | 0.0 | 0.00 | 0.00 | 0.00 | 59 | 1009.0 |
| 20260505005823 | 16 | 38 | 0.0 | 0.0 | 0.00 | 0.00 | 0.00 | 58 | 1008.9 |
| 20260505005320 | 16 | 40 | 0.0 | 1.6 | 0.00 | 0.00 | 0.00 | 58 | 1008.8 |
| 20260505004818 | 17 | 34 | 0.0 | 0.0 | 0.00 | 0.00 | 0.00 | 56 | 1008.9 |
| 20260505004314 | 17 | 37 | 0.0 | 1.6 | 0.00 | 0.00 | 0.00 | 56 | 1008.8 |
| 20260505003811 | 17 | 30 | 0.0 | 0.0 | 0.00 | 0.00 | 0.00 | 56 | 1008.8 |
| 20260505003309 | 17 | 32 | 0.0 | 0.0 | 0.00 | 0.00 | 0.00 | 54 | 1008.7 |
| 20260505002805 | 18 | 32 | 0.0 | 0.0 | 0.00 | 0.00 | 0.00 | 52 | 1008.8 |
| 20260505002304 | 18 | 33 | 0.0 | 0.0 | 0.00 | 0.00 | 0.00 | 51 | 1008.8 |
| 20260505001800 | 18 | 36 | 0.0 | 0.0 | 0.00 | 0.00 | 0.00 | 49 | 1008.8 |
| 20260505001257 | 19 | 32 | 0.0 | 0.0 | 0.00 | 0.00 | 0.00 | 48 | 1008.6 |
| 20260505000754 | 20 | 42 | 0.0 | 0.0 | 0.00 | 0.00 | 0.00 | 46 | 1008.7 |
| 20260505000252 | 20 | 32 | 0.0 | 0.0 | 0.00 | 0.00 | 0.00 | 45 | 1008.5 |
| 20260504235748 | 20 | 39 | 0.0 | 1.6 | 0.00 | 0.00 | 0.00 | 42 | 1008.6 |
| 20260504235244 | 21 | 33 | 0.0 | 0.0 | 0.00 | 0.00 | 0.00 | 42 | 1008.4 |
| 20260504234742 | 21 | 34 | 0.0 | 0.0 | 0.00 | 0.00 | 0.00 | 38 | 1008.4 |
| 20260504234239 | 22 | 42 | 3.2 | 3.2 | 0.00 | 0.00 | 0.00 | 38 | 1008.4 |
| 20260504233735 | 22 | 35 | 1.6 | 1.6 | 0.00 | 0.00 | 0.00 | 36 | 1008.4 |
| 20260504233231 | 22 | 53 | 1.6 | 1.6 | 0.00 | 0.00 | 0.00 | 35 | 1008.6 |
| 20260504232728 | 22 | 56 | 1.6 | 1.6 | 0.00 | 0.00 | 0.00 | 34 | 1008.6 |
| 20260504232225 | 22 | 51 | 3.2 | 4.8 | 0.00 | 0.00 | 0.00 | 34 | 1008.7 |
| 20260504231722 | 23 | 89 | 9.7 | 12.9 | 0.00 | 0.00 | 0.00 | 33 | 1008.5 |
| 20260504231218 | 23 | 38 | 1.6 | 1.6 | 0.00 | 0.00 | 0.00 | 34 | 1008.5 |
| 20260504230714 | 23 | 121 | 9.7 | 12.9 | 0.00 | 0.00 | 0.00 | 33 | 1008.5 |
| 20260504230214 | 23 | 31 | 3.2 | 4.8 | 0.00 | 0.00 | 0.00 | 33 | 1008.3 |
| 20260504225712 | 23 | 50 | 1.6 | 1.6 | 0.00 | 0.00 | 0.00 | 33 | 1008.4 |
| 20260504225207 | 23 | 22 | 0.0 | 0.0 | 0.00 | 0.00 | 0.00 | 33 | 1008.4 |
| 20260504224705 | 23 | 26 | 0.0 | 1.6 | 0.00 | 0.00 | 0.00 | 39 | 1008.5 |
| 20260504224202 | 23 | 34 | 3.2 | 4.8 | 0.00 | 0.00 | 0.00 | 33 | 1008.4 |
| 20260504223658 | 23 | 58 | 4.8 | 4.8 | 0.00 | 0.00 | 0.00 | 34 | 1008.1 |
| 20260504223154 | 23 | 49 | 1.6 | 1.6 | 0.00 | 0.00 | 0.00 | 32 | 1008.5 |
| 20260504222651 | 23 | 83 | 3.2 | 4.8 | 0.00 | 0.00 | 0.00 | 32 | 1008.3 |
| 20260504222148 | 23 | 33 | 0.0 | 1.6 | 0.00 | 0.00 | 0.00 | 33 | 1008.3 |
| 20260504221645 | 24 | 30 | 0.0 | 1.6 | 0.00 | 0.00 | 0.00 | 32 | 1008.4 |
| 20260504221142 | 24 | 92 | 6.4 | 9.7 | 0.00 | 0.00 | 0.00 | 31 | 1008.2 |
| 20260504220638 | 24 | 112 | 1.6 | 4.8 | 0.00 | 0.00 | 0.00 | 31 | 1008.1 |
| 20260504220136 | 25 | 22 | 0.0 | 1.6 | 0.00 | 0.00 | 0.00 | 31 | 1008.2 |
| 20260504215632 | 25 | 97 | 3.2 | 3.2 | 0.00 | 0.00 | 0.00 | 31 | 1008.3 |
| 20260504215130 | 25 | 184 | 4.8 | 6.4 | 0.00 | 0.00 | 0.00 | 31 | 1008.2 |
| 20260504214626 | 25 | 22 | 1.6 | 1.6 | 0.00 | 0.00 | 0.00 | 31 | 1008.2 |
| 20260504214122 | 25 | 52 | 1.6 | 3.2 | 0.00 | 0.00 | 0.00 | 30 | 1008.2 |
| 20260504213619 | 25 | 76 | 4.8 | 6.4 | 0.00 | 0.00 | 0.00 | 31 | 1008.3 |
| 20260504213116 | 25 | 23 | 1.6 | 1.6 | 0.00 | 0.00 | 0.00 | 30 | 1008.4 |
| 20260504212612 | 25 | 332 | 3.2 | 4.8 | 0.00 | 0.00 | 0.00 | 32 | 1008.3 |
| 20260504212109 | 25 | 211 | 1.6 | 3.2 | 0.00 | 0.00 | 0.00 | 31 | 1008.6 |
| 20260504211606 | 25 | 126 | 9.7 | 11.3 | 0.00 | 0.00 | 0.00 | 30 | 1008.6 |
| 20260504211102 | 25 | 83 | 6.4 | 12.9 | 0.00 | 0.00 | 0.00 | 30 | 1008.4 |
| 20260504210600 | 25 | 27 | 4.8 | 6.4 | 0.00 | 0.00 | 0.00 | 29 | 1008.7 |
| 20260504210056 | 25 | 20 | 1.6 | 3.2 | 0.00 | 0.00 | 0.00 | 32 | 1008.5 |
| 20260504205554 | 25 | 322 | 6.4 | 12.9 | 0.00 | 0.00 | 0.00 | 29 | 1008.5 |
| 20260504205052 | 25 | 17 | 3.2 | 4.8 | 0.00 | 0.00 | 0.00 | 30 | 1008.4 |
| 20260504204550 | 25 | 108 | 4.8 | 6.4 | 0.00 | 0.00 | 0.00 | 31 | 1008.6 |
| 20260504204049 | 25 | 325 | 3.2 | 3.2 | 0.00 | 0.00 | 0.00 | 31 | 1008.6 |
| 20260504203546 | 25 | 106 | 3.2 | 4.8 | 0.00 | 0.00 | 0.00 | 33 | 1008.4 |
| 20260504203044 | 25 | 78 | 6.4 | 6.4 | 0.00 | 0.00 | 0.00 | 31 | 1008.6 |
| 20260504202539 | 25 | 26 | 0.0 | 0.0 | 0.00 | 0.00 | 0.00 | 31 | 1008.6 |
| 20260504202036 | 26 | 194 | 4.8 | 4.8 | 0.00 | 0.00 | 0.00 | 30 | 1009.0 |
| 20260504201533 | 26 | 77 | 4.8 | 4.8 | 0.00 | 0.00 | 0.00 | 30 | 1008.8 |
| 20260504201031 | 25 | 14 | 0.0 | 0.0 | 0.00 | 0.00 | 0.00 | 32 | 1008.8 |
| 20260504200527 | 25 | 299 | 4.8 | 4.8 | 0.00 | 0.00 | 0.00 | 32 | 1008.8 |
| 20260504200024 | 25 | 209 | 6.4 | 11.3 | 0.00 | 0.00 | 0.00 | 31 | 1008.9 |
| 20260504195520 | 25 | 185 | 4.8 | 4.8 | 0.00 | 0.00 | 0.00 | 30 | 1008.8 |
| 20260504195017 | 25 | 0 | 4.8 | 6.4 | 0.00 | 0.00 | 0.00 | 32 | 1009.0 |
| 20260504194513 | 25 | 10 | 4.8 | 4.8 | 0.00 | 0.00 | 0.00 | 31 | 1009.2 |
| 20260504194008 | 25 | 125 | 4.8 | 9.7 | 0.00 | 0.00 | 0.00 | 32 | 1009.2 |
| 20260504193506 | 24 | 137 | 3.2 | 4.8 | 0.00 | 0.00 | 0.00 | 31 | 1009.4 |
| 20260504193004 | 25 | 325 | 4.8 | 9.7 | 0.00 | 0.00 | 0.00 | 31 | 1009.5 |
| 20260504192502 | 25 | 194 | 3.2 | 4.8 | 0.00 | 0.00 | 0.00 | 30 | 1009.6 |
| 20260504192000 | 25 | 69 | 3.2 | 4.8 | 0.00 | 0.00 | 0.00 | 31 | 1009.8 |
| 20260504191458 | 25 | 15 | 4.8 | 4.8 | 0.00 | 0.00 | 0.00 | 29 | 1009.8 |
| 20260504190953 | 25 | 2 | 9.7 | 11.3 | 0.00 | 0.00 | 0.00 | 30 | 1009.8 |
| 20260504190449 | 25 | 354 | 1.6 | 1.6 | 0.00 | 0.00 | 0.00 | 31 | 1009.8 |
| 20260504185946 | 25 | 165 | 4.8 | 6.4 | 0.00 | 0.00 | 0.00 | 31 | 1010.0 |
| 20260504185443 | 25 | 14 | 1.6 | 3.2 | 0.00 | 0.00 | 0.00 | 30 | 1009.9 |
| 20260504184939 | 25 | 210 | 3.2 | 4.8 | 0.00 | 0.00 | 0.00 | 31 | 1010.1 |
| 20260504184434 | 25 | 142 | 1.6 | 3.2 | 0.00 | 0.00 | 0.00 | 30 | 1010.2 |
| 20260504183931 | 24 | 230 | 4.8 | 4.8 | 0.00 | 0.00 | 0.00 | 32 | 1010.3 |
| 20260504183428 | 25 | 334 | 11.3 | 12.9 | 0.00 | 0.00 | 0.00 | 28 | 1010.5 |
| 20260504182926 | 24 | 73 | 1.6 | 1.6 | 0.00 | 0.00 | 0.00 | 30 | 1010.5 |
| 20260504182423 | 24 | 191 | 3.2 | 4.8 | 0.00 | 0.00 | 0.00 | 30 | 1010.4 |
| 20260504181920 | 24 | 84 | 4.8 | 4.8 | 0.00 | 0.00 | 0.00 | 33 | 1010.5 |
| 20260504181417 | 25 | 24 | 1.6 | 1.6 | 0.00 | 0.00 | 0.00 | 30 | 1010.5 |
| 20260504180916 | 24 | 351 | 3.2 | 4.8 | 0.00 | 0.00 | 0.00 | 32 | 1010.6 |
| 20260504180414 | 23 | 2 | 4.8 | 6.4 | 0.00 | 0.00 | 0.00 | 33 | 1010.5 |
| 20260504175912 | 23 | 350 | 0.0 | 1.6 | 0.00 | 0.00 | 0.00 | 34 | 1010.7 |
| 20260504175409 | 24 | 201 | 6.4 | 6.4 | 0.00 | 0.00 | 0.00 | 28 | 1010.9 |
| 20260504174906 | 24 | 12 | 3.2 | 4.8 | 0.00 | 0.00 | 0.00 | 30 | 1010.8 |
| 20260504174404 | 23 | 188 | 6.4 | 9.7 | 0.00 | 0.00 | 0.00 | 29 | 1010.9 |
| 20260504173901 | 23 | 22 | 1.6 | 3.2 | 0.00 | 0.00 | 0.00 | 30 | 1010.9 |
| 20260504173357 | 23 | 211 | 3.2 | 6.4 | 0.00 | 0.00 | 0.00 | 35 | 1011.0 |
| 20260504172854 | 23 | 135 | 4.8 | 9.7 | 0.00 | 0.00 | 0.00 | 31 | 1011.0 |
| 20260504172351 | 23 | 350 | 4.8 | 6.4 | 0.00 | 0.00 | 0.00 | 29 | 1011.0 |
| 20260504171847 | 23 | 291 | 4.8 | 4.8 | 0.00 | 0.00 | 0.00 | 29 | 1011.3 |
| 20260504171344 | 23 | 59 | 1.6 | 1.6 | 0.00 | 0.00 | 0.00 | 30 | 1011.1 |
| 20260504170841 | 23 | 146 | 11.3 | 16.1 | 0.00 | 0.00 | 0.00 | 30 | 1011.4 |
| 20260504170338 | 23 | 137 | 8.0 | 14.5 | 0.00 | 0.00 | 0.00 | 30 | 1011.5 |
| 20260504160256 | 22 | 36 | 1.6 | 1.6 | 0.00 | 0.00 | 0.00 | 32 | 1012.1 |
| 20260504150722 | 21 | 4 | 4.8 | 6.4 | 0.00 | 0.00 | 0.00 | 33 | 1012.7 |
| 20260504150218 | 21 | 130 | 6.4 | 9.7 | 0.00 | 0.00 | 0.00 | 33 | 1012.8 |
| 20260504141148 | 19 | 46 | 0.0 | 1.6 | 0.00 | 0.00 | 0.00 | 38 | 1012.9 |
| 20260504140645 | 18 | 34 | 1.6 | 1.6 | 0.00 | 0.00 | 0.00 | 41 | 1012.7 |
| 20260504140140 | 18 | 356 | 6.4 | 9.7 | 0.00 | 0.00 | 0.00 | 37 | 1012.8 |